| time (UTC) | temp F | wind direction | speed knots | gust knots | rain 1hr in | rain 24hr in | rain mn in | humidity % | barometer mb |
| 20260503005036 | 57 | 0.0 | 0.0 | 0.00 | 0.00 | 0.00 | 45 | 1007.9 | |
| 20260503004016 | 57 | 0.0 | 1.7 | 0.00 | 0.00 | 0.00 | 45 | 1007.8 | |
| 20260503003016 | 57 | 0.0 | 0.0 | 0.00 | 0.00 | 0.00 | 48 | 1008.0 | |
| 20260503002016 | 57 | 0.0 | 0.0 | 0.00 | 0.00 | 0.00 | 47 | 1008.1 | |
| 20260503001015 | 57 | 0.0 | 0.9 | 0.00 | 0.00 | 0.00 | 45 | 1008.1 | |
| 20260503000015 | 57 | 0.0 | 0.9 | 0.00 | 0.00 | 0.00 | 45 | 1008.2 | |
| 20260502235015 | 57 | 0.0 | 1.7 | 0.00 | 0.00 | 0.00 | 44 | 1008.4 | |
| 20260502234016 | 58 | 248 | 1.7 | 5.2 | 0.00 | 0.00 | 0.00 | 43 | 1008.2 |
| 20260502233015 | 57 | 225 | 0.9 | 2.6 | 0.00 | 0.00 | 0.00 | 42 | 1008.2 |
| 20260502232015 | 57 | 270 | 0.9 | 2.6 | 0.00 | 0.00 | 0.00 | 47 | 1008.5 |
| 20260502231056 | 58 | 270 | 2.6 | 7.0 | 0.00 | 0.00 | 0.00 | 43 | 1008.5 |
| 20260502230015 | 59 | 270 | 1.7 | 4.3 | 0.00 | 0.00 | 0.00 | 40 | 1008.6 |
| 20260502225015 | 59 | 248 | 2.6 | 7.8 | 0.00 | 0.00 | 0.00 | 40 | 1008.6 |
| 20260502224016 | 59 | 293 | 2.6 | 5.2 | 0.00 | 0.00 | 0.00 | 45 | 1008.7 |
| 20260502223035 | 60 | 293 | 2.6 | 4.3 | 0.00 | 0.00 | 0.00 | 45 | 1008.8 |
| 20260502222016 | 60 | 293 | 2.6 | 5.2 | 0.00 | 0.00 | 0.00 | 40 | 1008.9 |
| 20260502221017 | 60 | 270 | 3.5 | 7.0 | 0.00 | 0.00 | 0.00 | 38 | 1009.0 |
| 20260502220017 | 61 | 293 | 2.6 | 7.0 | 0.00 | 0.00 | 0.00 | 39 | 1009.1 |
| 20260502215018 | 61 | 248 | 4.3 | 7.8 | 0.00 | 0.00 | 0.00 | 36 | 1009.4 |
| 20260502214017 | 60 | 248 | 3.5 | 7.8 | 0.00 | 0.00 | 0.00 | 37 | 1009.5 |
| 20260502213017 | 59 | 293 | 3.5 | 6.1 | 0.00 | 0.00 | 0.00 | 40 | 1009.4 |
| 20260502212037 | 58 | 315 | 0.9 | 2.6 | 0.00 | 0.00 | 0.00 | 43 | 1009.6 |
| 20260502211017 | 59 | 293 | 3.5 | 6.1 | 0.00 | 0.00 | 0.00 | 39 | 1009.7 |
| 20260502210018 | 57 | 293 | 4.3 | 8.7 | 0.00 | 0.00 | 0.00 | 42 | 1009.8 |
| 20260502205017 | 56 | 315 | 1.7 | 3.5 | 0.00 | 0.00 | 0.00 | 41 | 1010.0 |
| 20260502204017 | 57 | 293 | 2.6 | 4.3 | 0.00 | 0.00 | 0.00 | 43 | 1010.2 |
| 20260502203017 | 59 | 293 | 3.5 | 7.0 | 0.00 | 0.00 | 0.00 | 40 | 1010.5 |
| 20260502202017 | 59 | 225 | 3.5 | 7.0 | 0.00 | 0.00 | 0.00 | 36 | 1010.6 |
| 20260502201017 | 58 | 248 | 3.5 | 8.7 | 0.00 | 0.00 | 0.00 | 36 | 1010.9 |
| 20260502200017 | 57 | 270 | 4.3 | 7.8 | 0.00 | 0.00 | 0.00 | 39 | 1011.1 |
| 20260502195017 | 57 | 293 | 3.5 | 7.8 | 0.00 | 0.00 | 0.00 | 38 | 1011.1 |
| 20260502194017 | 57 | 293 | 3.5 | 7.0 | 0.00 | 0.00 | 0.00 | 36 | 1011.3 |
| 20260502193057 | 57 | 293 | 3.5 | 6.1 | 0.00 | 0.00 | 0.00 | 40 | 1011.5 |
| 20260502192017 | 56 | 293 | 4.3 | 7.0 | 0.00 | 0.00 | 0.00 | 36 | 1011.6 |
| 20260502191017 | 56 | 293 | 4.3 | 7.0 | 0.00 | 0.00 | 0.00 | 36 | 1011.7 |
| 20260502190017 | 56 | 248 | 3.5 | 7.8 | 0.00 | 0.00 | 0.00 | 36 | 1011.9 |
| 20260502185017 | 55 | 293 | 3.5 | 5.2 | 0.00 | 0.00 | 0.00 | 41 | 1012.1 |
| 20260502184017 | 55 | 293 | 4.3 | 7.8 | 0.00 | 0.00 | 0.00 | 40 | 1012.2 |
| 20260502183017 | 55 | 293 | 1.7 | 4.3 | 0.00 | 0.00 | 0.00 | 38 | 1012.4 |
| 20260502182037 | 54 | 293 | 3.5 | 7.0 | 0.00 | 0.00 | 0.00 | 39 | 1012.6 |
| 20260502181017 | 54 | 293 | 3.5 | 12.2 | 0.00 | 0.00 | 0.00 | 39 | 1012.8 |
| 20260502164037 | 51 | 293 | 0.9 | 2.6 | 0.00 | 0.00 | 0.00 | 38 | 1014.3 |
| 20260502163016 | 51 | 315 | 1.7 | 4.3 | 0.00 | 0.00 | 0.00 | 41 | 1014.6 |
| 20260502162017 | 51 | 270 | 0.9 | 2.6 | 0.00 | 0.00 | 0.00 | 39 | 1014.7 |
| 20260502161017 | 51 | 293 | 2.6 | 4.3 | 0.00 | 0.00 | 0.00 | 42 | 1014.8 |
| 20260502152016 | 47 | 23 | 0.9 | 2.6 | 0.00 | 0.00 | 0.00 | 51 | 1015.2 |
| 20260502151016 | 45 | 45 | 1.7 | 3.5 | 0.00 | 0.00 | 0.00 | 50 | 1015.4 |
| 20260502123036 | 36 | 0.0 | 0.9 | 0.00 | 0.00 | 0.00 | 78 | 1016.7 | |
| 20260502122016 | 35 | 0.0 | 0.9 | 0.00 | 0.00 | 0.00 | 80 | 1016.7 | |
| 20260502121036 | 33 | 0.0 | 0.0 | 0.00 | 0.00 | 0.00 | 85 | 1016.7 | |
| 20260502115036 | 32 | 0.0 | 0.0 | 0.00 | 0.00 | 0.00 | 86 | 1016.4 | |
| 20260502114016 | 32 | 0.0 | 0.0 | 0.00 | 0.00 | 0.00 | 90 | 1016.4 | |
| 20260502113016 | 30 | 0.0 | 0.0 | 0.00 | 0.00 | 0.00 | 93 | 1016.5 | |
| 20260502112036 | 28 | 0.0 | 0.0 | 0.00 | 0.00 | 0.00 | 94 | 1016.3 | |
| 20260502111036 | 27 | 0.0 | 0.0 | 0.00 | 0.00 | 0.00 | 95 | 1016.2 | |
| 20260502110016 | 25 | 0.0 | 0.0 | 0.00 | 0.00 | 0.00 | 95 | 1016.1 | |
| 20260502105036 | 24 | 0.0 | 0.0 | 0.00 | 0.00 | 0.00 | 95 | 1016.0 | |
| 20260502104036 | 25 | 0.0 | 0.0 | 0.00 | 0.00 | 0.00 | 95 | 1016.0 | |
| 20260502103036 | 24 | 0.0 | 0.0 | 0.00 | 0.00 | 0.00 | 95 | 1016.1 | |
| 20260502102016 | 25 | 0.0 | 0.0 | 0.00 | 0.00 | 0.00 | 95 | 1016.2 | |
| 20260502101036 | 24 | 0.0 | 0.0 | 0.00 | 0.00 | 0.00 | 95 | 1016.2 | |
| 20260502091016 | 26 | 0.0 | 0.0 | 0.00 | 0.00 | 0.00 | 93 | 1016.3 | |
| 20260502071017 | 27 | 0.0 | 0.0 | 0.00 | 0.00 | 0.00 | 90 | 1016.6 | |
| 20260502070017 | 27 | 0.0 | 0.0 | 0.00 | 0.00 | 0.00 | 90 | 1016.7 | |
| 20260502065017 | 27 | 0.0 | 0.0 | 0.00 | 0.00 | 0.00 | 92 | 1016.7 | |
| 20260502064017 | 27 | 0.0 | 0.0 | 0.00 | 0.00 | 0.00 | 91 | 1016.6 | |
| 20260502063017 | 27 | 0.0 | 0.0 | 0.00 | 0.00 | 0.00 | 91 | 1016.6 | |
| 20260502062017 | 27 | 0.0 | 0.0 | 0.00 | 0.00 | 0.00 | 90 | 1016.7 | |
| 20260502061017 | 28 | 0.0 | 0.0 | 0.00 | 0.00 | 0.00 | 90 | 1016.7 | |
| 20260502060017 | 28 | 0.0 | 0.9 | 0.00 | 0.00 | 0.00 | 89 | 1016.7 | |
| 20260502055017 | 28 | 0.0 | 0.0 | 0.00 | 0.00 | 0.00 | 89 | 1016.7 | |
| 20260502054017 | 28 | 0.0 | 0.0 | 0.00 | 0.00 | 0.00 | 89 | 1016.6 | |
| 20260502053017 | 28 | 0.0 | 0.0 | 0.00 | 0.00 | 0.00 | 88 | 1016.7 | |
| 20260502052017 | 29 | 0.0 | 0.0 | 0.00 | 0.00 | 0.00 | 88 | 1016.7 | |
| 20260502051017 | 29 | 0.0 | 0.0 | 0.00 | 0.00 | 0.00 | 87 | 1016.8 | |
| 20260502050017 | 28 | 0.0 | 0.0 | 0.00 | 0.00 | 0.00 | 86 | 1016.7 | |
| 20260502045035 | 29 | 0.0 | 0.0 | 0.00 | 0.00 | 0.00 | 84 | 1016.9 | |
| 20260502044016 | 29 | 0.0 | 0.0 | 0.00 | 0.00 | 0.00 | 84 | 1016.8 | |
| 20260502043015 | 29 | 0.0 | 0.0 | 0.00 | 0.00 | 0.00 | 83 | 1016.7 | |
| 20260502042015 | 29 | 0.0 | 0.0 | 0.00 | 0.00 | 0.00 | 79 | 1016.8 | |
| 20260502041015 | 30 | 0.0 | 0.0 | 0.00 | 0.00 | 0.00 | 77 | 1016.8 | |
| 20260502040017 | 30 | 0.0 | 0.0 | 0.00 | 0.00 | 0.00 | 76 | 1016.7 | |
| 20260502035017 | 31 | 0.0 | 0.0 | 0.00 | 0.00 | 0.00 | 79 | 1016.9 | |
| 20260502034017 | 32 | 0.0 | 0.0 | 0.00 | 0.00 | 0.00 | 77 | 1016.8 | |
| 20260502033017 | 32 | 0.0 | 0.0 | 0.00 | 0.00 | 0.00 | 70 | 1016.7 | |
| 20260502032017 | 32 | 0.0 | 0.0 | 0.00 | 0.00 | 0.00 | 68 | 1016.7 | |
| 20260502031017 | 33 | 0.0 | 0.0 | 0.00 | 0.00 | 0.00 | 68 | 1016.7 | |
| 20260502030037 | 33 | 0.0 | 0.0 | 0.00 | 0.00 | 0.00 | 67 | 1016.8 | |
| 20260502025017 | 34 | 0.0 | 0.0 | 0.00 | 0.00 | 0.00 | 66 | 1016.9 | |
| 20260502024017 | 35 | 0.0 | 0.0 | 0.00 | 0.00 | 0.00 | 61 | 1016.7 | |
| 20260502023017 | 35 | 0.0 | 0.0 | 0.00 | 0.00 | 0.00 | 61 | 1016.7 | |
| 20260502022017 | 37 | 0.0 | 0.0 | 0.00 | 0.00 | 0.00 | 59 | 1016.8 | |
| 20260502021037 | 38 | 0.0 | 0.0 | 0.00 | 0.00 | 0.00 | 58 | 1016.7 | |
| 20260502020017 | 39 | 0.0 | 0.0 | 0.00 | 0.00 | 0.00 | 56 | 1016.6 | |
| 20260502015017 | 39 | 0.0 | 0.0 | 0.00 | 0.00 | 0.00 | 56 | 1016.5 | |
| 20260502014037 | 40 | 0.0 | 0.0 | 0.00 | 0.00 | 0.00 | 54 | 1016.5 | |
| 20260502013017 | 41 | 0.0 | 0.0 | 0.00 | 0.00 | 0.00 | 53 | 1016.5 | |
| 20260502012017 | 40 | 0.0 | 0.9 | 0.00 | 0.00 | 0.00 | 57 | 1016.4 | |
| 20260502011017 | 42 | 45 | 0.9 | 2.6 | 0.00 | 0.00 | 0.00 | 53 | 1016.5 |
| 20260502010017 | 43 | 45 | 2.6 | 5.2 | 0.00 | 0.00 | 0.00 | 52 | 1016.5 |